Location: Ciula Mare
(45.6000°N, 22.8167°E)
Time: 13:50:31
(UTC+00:00)

Daily predictions for brighter satellites

Satellite Brightness Start Highest point End
(mag) Time Altitude Azimuth Time Altitude Azimuth Time Altitude Azimuth
BREEZE-M DEB (TANK) 4.2 15:59:56 10° WNW 16:03:19 69° SSW 16:15:36 10° SE
H-2A R/B 4.1 15:59:08 10° SSW 16:03:50 34° W 16:08:40 10° NNW
Meteor PRIRODA 3.5 16:02:15 10° SSE 16:05:46 71° ENE 16:09:19 10° N
Cosmos 1844 Rocket 3.4 16:01:08 10° N 16:06:07 32° NE 16:11:02 10° ESE
Cosmos 1461 4.2 16:03:03 10° SSE 16:06:25 23° ESE 16:09:56 10° ENE
Okean O Rocket 3.5 16:05:56 10° E 16:07:30 12° ENE 16:09:05 10° NE
USA 290 3.3 16:05:18 10° SW 16:08:25 45° WNW 16:11:32 10° N
Cosmos 1633 4.2 16:07:26 10° ESE 16:09:03 13° E 16:10:40 10° ENE
Cosmos 1408 2.6 16:07:00 10° S 16:10:17 50° E 16:13:37 10° NNE
NOAA 6 4.0 16:06:54 10° SSE 16:12:01 75° ENE 16:17:12 10° N
Cosmos 1328 3.8 16:08:57 10° S 16:12:52 61° E 16:16:47 10° NNE
CZ-4B R/B 4.2 16:10:27 10° ESE 16:14:39 24° ENE 16:18:55 10° N
Lacrosse 5 rocket 2.4 16:14:42 10° NNW 16:17:35 22° NNE 16:20:26 10° ENE
DELTA 2 DEB (DPAF) 4.1 16:13:23 10° NNE 16:17:48 82° ESE 16:22:11 10° SSW
Cosmos 2227 4.3 16:14:30 10° NNW 16:20:19 90° SW 16:26:05 10° SSE
Cosmos 1844 4.3 16:16:35 10° NNW 16:21:57 37° NE 16:27:15 10° ESE
Cosmos 2278 4.1 16:19:54 10° SW 16:25:33 70° WNW 16:31:16 10° NNE
SKYMED 2 3.7 16:21:32 10° NNE 16:25:49 54° E 16:30:04 10° S
Cosmos 468 Rocket 4.3 16:21:49 10° N 16:26:47 44° ENE 16:31:41 10° SE
Cosmos 2360 Rocket 2.9 16:22:59 10° SSE 16:27:56 33° ESE 16:32:56 10° NE
Cosmos 2219 Rocket 3.7 16:25:29 10° SE 16:28:26 15° E 16:30:33 12° ENE
CZ-4 R/B 2.8 16:26:33 10° ESE 16:29:21 18° ENE 16:32:07 10° NNE
Cosmos 2058 Rocket 4.2 16:26:29 10° NNE 16:29:56 22° ENE 16:33:23 10° ESE
Cosmos 1892 2.7 16:27:31 10° S 16:31:10 58° E 16:34:53 10° NNE
YAOGAN 1 3.2 16:30:59 10° SE 16:34:49 32° ENE 16:38:40 10° N
CZ-4C R/B 3.3 16:31:20 10° NNE 16:35:05 53° E 16:38:38 10° S
Cosmos 2333 Rocket 3.2 16:31:31 10° SSE 16:36:02 25° ESE 16:40:16 11° NE
Cosmos 2278 Rocket 4.1 16:35:06 10° NNE 16:36:23 11° NNE 16:37:40 10° NE
Cosmos 1954 Rocket 4.0 16:31:31 10° S 16:36:42 64° ESE 16:41:52 10° NNE
USA 215 3.6 16:30:29 10° SE 16:37:00 71° SW 16:43:34 10° NW
Cosmos 2322 Rocket 2.2 16:34:26 10° S 16:39:56 59° ESE 16:45:27 10° NNE
RESURS DK-1 3.0 16:37:01 10° NNW 16:40:47 34° NE 16:44:32 10° ESE
Cosmos 1825 2.3 16:37:51 10° SSE 16:41:23 45° E 16:44:56 10° NNE
Cosmos 1763 Rocket 3.4 16:39:03 10° NNW 16:44:16 76° ENE 16:49:21 10° SSE
ATLAS 2AS CENTAUR R/B 2.7 16:37:15 10° NW 16:44:19 84° NE 16:50:57 10° SE
Cosmos 1536 Rocket 4.5 16:41:27 10° SSW 16:45:39 50° WNW 16:49:54 10° N
COSMOS 2428 4.4 16:48:45 10° SE 16:50:14 13° ESE 16:50:14 13° ESE
Nadezhda 2 Rocket 4.4 16:46:06 10° N 16:52:16 65° E 16:58:20 10° SSE
Lacrosse 5 1.8 16:47:31 10° SW 16:52:38 86° SE 16:56:36 17° NE
SL-16 R/B 2.4 16:48:48 10° SSW 16:54:28 77° WNW 17:00:11 10° NNE
In-Cosmos 22 Rocket 4.2 16:49:33 10° S 16:55:18 68° E 17:01:06 10° NNE
Gblst 52 Del rocket 4.2 16:50:14 10° WSW 16:55:54 73° NNW 16:59:50 19° ENE
SL-4 R/B 2.8 16:53:01 10° WNW 16:56:11 30° N 16:57:44 22° NE
BlueWalker 3 3.4 16:53:04 10° WNW 16:56:23 26° N 16:58:16 18° NE
Cosmos 841 Rocket 3.9 16:51:47 10° N 16:56:45 40° ENE 17:01:39 10° SE
Cosmos 2228 4.0 16:53:19 10° NNW 16:57:23 48° W 17:01:26 10° SSW
CZ-4B R/B 4.4 16:53:41 10° S 16:57:32 39° W 17:01:12 10° NNW
Cosmos 1606 Rocket 3.5 16:54:09 10° N 16:58:29 87° WSW 17:02:48 10° S
Cosmos 540 Rocket 3.4 16:53:25 10° NNW 16:58:34 65° ENE 17:03:39 10° SSE
IRIDIUM 114 4.4 16:59:10 10° N 17:04:19 56° E 17:09:26 10° SSE
Cosmos 1340 3.0 17:01:06 10° N 17:04:35 39° ENE 17:07:16 15° SE
Cosmos 1980 Rocket 4.4 17:02:56 10° W 17:07:10 21° NW 17:11:26 10° N
Cosmos 1892 Rocket 3.4 17:05:27 10° S 17:09:51 73° E 17:14:14 10° NNE
PAYLOAD B 4.2 17:06:27 10° SSE 17:11:59 88° WSW 17:17:32 10° NNW
IRIDIUM 103 4.2 17:08:17 10° N 17:13:31 68° E 17:18:42 10° SSE
COSMO-SKYMED 1 3.6 17:09:36 10° N 17:13:47 47° WNW 17:17:57 10° SW
MINOTAUR 4 R/B 3.9 17:12:37 27° NNE 17:14:18 60° ESE 17:17:40 10° S
Spot 1 4.4 17:13:31 34° ENE 17:14:18 38° E 17:18:06 10° SSE
Cosmos 2322 4.4 17:12:52 10° SSE 17:17:47 31° ESE 17:18:23 30° E
Cosmos 676 Rocket 4.5 17:15:31 10° SSW 17:20:45 63° WNW 17:26:00 10° NNE
Meteor 1-27 4.2 17:15:16 10° N 17:21:05 80° ENE 17:26:47 10° SSE
BREEZE-M DEB (TANK) 3.1 17:19:48 10° W 17:23:17 90° NNW 17:27:08 28° E
ATLAS CENTAUR R/B 4.0 17:21:13 10° WNW 17:24:07 16° NNW 17:26:57 10° N
Genesis I 3.1 17:20:12 10° SSW 17:24:09 77° SE 17:25:15 45° NE
Cosmos 1869 3.3 17:26:13 10° N 17:30:07 79° W 17:34:03 10° S
Cosmos 1726 Rocket 4.4 17:26:24 10° NNW 17:30:35 51° W 17:34:46 10° S
IRIDIUM 106 4.3 17:26:34 10° N 17:31:49 85° W 17:37:02 10° S
ISS -0.8 17:33:51 10° W 17:35:51 15° SW 17:37:52 10° S
Cosmos 1745 Rocket 3.8 17:31:50 10° N 17:38:06 73° E 17:44:16 10° SSE
BREEZE-M DEB (TANK) 3.4 17:25:43 10° SW 17:40:13 73° SSE 17:41:41 47° E
Cosmos 1386 Rocket 4.3 17:35:22 10° N 17:41:25 82° E 17:47:27 10° S
Cosmos 1633 4.0 17:39:44 10° SW 17:42:50 34° WNW 17:45:56 10° N
Okean O Rocket 1.5 17:38:45 10° SSE 17:43:08 88° W 17:47:35 10° NNW
Cosmos 1461 4.0 17:40:53 10° WSW 17:44:59 45° NW 17:47:01 27° N
Cosmos 1844 Rocket 3.7 17:44:52 10° NW 17:50:09 45° WSW 17:55:23 10° S
CZ-4B R/B 3.8 17:49:36 10° S 17:54:49 55° W 18:00:10 10° NNW
Cosmos 1709 Rocket 3.8 17:50:29 10° N 17:56:37 65° E 17:58:24 45° SE
Lacrosse 5 rocket 1.9 17:53:10 10° NW 17:55:52 48° WNW 17:55:52 48° WNW
CZ-4 R/B 2.4 17:59:58 10° S 18:03:55 45° W 18:07:51 10° NNW
Cosmos 44 Rocket 3.4 18:06:21 10° SW 18:10:25 66° WSW 18:10:25 66° WSW
Cosmos 2219 Rocket 2.1 18:05:59 10° SSW 18:11:34 85° WNW 18:12:22 67° NNE
Cosmos 2360 Rocket 3.3 18:06:27 10° SW 18:11:47 42° NW 18:15:52 17° N
Cosmos 883 Rocket 4.4 18:11:32 10° S 18:17:48 89° E 18:24:11 10° N
Cosmos 2333 Rocket 2.8 18:14:24 10° SW 18:19:55 54° WNW 18:22:21 32° N
Atlas Centaur 2 4.2 18:14:15 10° SW 18:20:52 26° S 18:21:47 26° SSE
Cosmos 2278 Rocket 3.4 18:16:36 10° NNW 18:19:41 29° N 18:19:41 29° N
Cosmos 2322 Rocket 4.1 18:19:45 10° WSW 18:24:22 26° NW 18:28:47 11° N
Cosmos 1814 Rocket 4.4 18:21:44 10° NNW 18:26:09 60° NW 18:26:09 60° NW
COSMOS 2428 3.8 18:29:10 10° SSW 18:32:20 35° SSW 18:32:20 35° SSW
Lacrosse 5 3.3 18:31:34 10° W 18:35:50 31° NNW 18:35:50 31° NNW
CSL-04 Rocket 4.5 18:47:08 46° WNW 18:47:08 46° WNW 18:51:27 10° NNW
Cosmos 1943 Rocket 4.5 18:57:00 10° NNW 18:57:56 14° N 18:57:56 14° N
